TimeMST,TemperatureF,Dew PointF,Humidity,Sea Level PressureIn,VisibilityMPH,Wind Direction,Wind SpeedMPH,Gust SpeedMPH,PrecipitationIn,Events,Conditions,WindDirDegrees,DateUTC
12:53 AM,28.0,21.9,78,30.15,10.0,WSW,13.8,-,N/A,,Overcast,240,2012-12-09 07:53:00
1:53 AM,28.0,21.9,78,30.16,10.0,WSW,12.7,-,N/A,,Overcast,250,2012-12-09 08:53:00
2:53 AM,28.0,23.0,81,30.17,10.0,West,13.8,-,N/A,,Overcast,260,2012-12-09 09:53:00
3:53 AM,27.0,21.9,81,30.18,10.0,West,9.2,-,N/A,,Overcast,260,2012-12-09 10:53:00
4:07 AM,26.6,21.2,80,30.15,10.0,West,9.2,-,N/A,,Overcast,260,2012-12-09 11:07:00
4:14 AM,28.4,23.0,80,30.15,10.0,WSW,13.8,-,N/A,,Overcast,250,2012-12-09 11:14:00
4:53 AM,28.0,23.0,81,30.19,10.0,West,15.0,-,N/A,,Overcast,270,2012-12-09 11:53:00
5:53 AM,28.0,23.0,81,30.22,10.0,West,16.1,-,N/A,,Overcast,270,2012-12-09 12:53:00
6:53 AM,28.0,23.0,81,30.26,10.0,NW,10.4,-,N/A,,Overcast,310,2012-12-09 13:53:00
7:53 AM,27.0,21.9,81,30.30,10.0,WNW,11.5,-,N/A,,Overcast,300,2012-12-09 14:53:00
8:00 AM,26.6,21.2,80,30.25,10.0,NW,11.5,-,N/A,,Overcast,310,2012-12-09 15:00:00
8:35 AM,26.6,21.2,80,30.27,10.0,WNW,8.1,-,N/A,,Overcast,300,2012-12-09 15:35:00
8:37 AM,26.6,21.2,80,30.27,10.0,NW,8.1,-,N/A,,Overcast,310,2012-12-09 15:37:00
8:45 AM,26.6,21.2,80,30.27,10.0,WNW,10.4,-,N/A,,Overcast,300,2012-12-09 15:45:00
8:53 AM,27.0,21.9,81,30.33,10.0,NW,9.2,-,N/A,,Overcast,310,2012-12-09 15:53:00
9:00 AM,26.6,21.2,80,30.28,10.0,WNW,9.2,-,N/A,,Overcast,300,2012-12-09 16:00:00
9:33 AM,26.6,19.4,74,30.31,10.0,West,10.4,-,N/A,,Overcast,280,2012-12-09 16:33:00
9:53 AM,28.0,21.0,75,30.36,10.0,WNW,8.1,-,N/A,,Mostly Cloudy,290,2012-12-09 16:53:00
10:50 AM,28.4,19.4,69,30.34,10.0,WNW,6.9,-,N/A,,Mostly Cloudy,290,2012-12-09 17:50:00
10:53 AM,28.0,18.0,66,30.40,10.0,WNW,6.9,-,N/A,,Mostly Cloudy,290,2012-12-09 17:53:00
11:14 AM,28.4,17.6,64,30.34,10.0,West,5.8,-,N/A,,Overcast,270,2012-12-09 18:14:00
11:36 AM,28.4,17.6,64,30.34,10.0,WNW,3.5,-,N/A,,Overcast,300,2012-12-09 18:36:00
12:01 PM,30.2,17.6,60,30.34,10.0,WSW,6.9,-,N/A,,Mostly Cloudy,250,2012-12-09 19:01:00
12:10 PM,28.4,17.6,64,30.33,10.0,SW,6.9,-,N/A,,Scattered Clouds,230,2012-12-09 19:10:00
12:53 PM,30.9,18.0,59,30.37,10.0,SW,6.9,-,N/A,,Partly Cloudy,220,2012-12-09 19:53:00
1:53 PM,30.0,17.1,59,30.35,10.0,SW,10.4,-,N/A,,Partly Cloudy,230,2012-12-09 20:53:00
2:53 PM,32.0,15.1,50,30.36,10.0,WSW,13.8,-,N/A,,Clear,240,2012-12-09 21:53:00
3:53 PM,30.9,12.9,47,30.37,10.0,West,10.4,-,N/A,,Clear,260,2012-12-09 22:53:00
4:53 PM,30.9,17.1,57,30.35,10.0,West,9.2,-,N/A,,Clear,260,2012-12-09 23:53:00
5:53 PM,28.0,19.0,69,30.36,10.0,SSW,5.8,-,N/A,,Partly Cloudy,210,2012-12-10 00:53:00
6:53 PM,28.0,19.0,69,30.34,10.0,SSW,10.4,-,N/A,,Partly Cloudy,200,2012-12-10 01:53:00
7:53 PM,28.0,17.1,63,30.34,10.0,South,10.4,-,N/A,,Mostly Cloudy,190,2012-12-10 02:53:00
8:53 PM,28.0,17.1,63,30.34,10.0,South,11.5,-,N/A,,Overcast,190,2012-12-10 03:53:00
9:53 PM,28.9,19.9,69,30.30,10.0,SSW,11.5,-,N/A,,Scattered Clouds,200,2012-12-10 04:53:00
10:53 PM,33.1,21.0,61,30.30,10.0,SSW,11.5,-,N/A,,Overcast,210,2012-12-10 05:53:00
11:53 PM,34.0,23.0,64,30.27,10.0,SW,6.9,-,N/A,,Overcast,220,2012-12-10 06:53:00